Location: Breungeshain
(50.5000°N, 9.2000°E)
Time: 06:19:18
(UTC+00:00)

ISS - Pass Details

Date: 23 May 2018
Orbit: 402 x 407 km, 51.6° (Epoch: 26 May)

Event Time Altitude Azimuth Distance (km) Brightness Sun altitude
Rises 23:19:34 0° 281° (W) 2,321 0.2 -18.8°
Reaches altitude 10° 23:21:39 10° 282° (WNW) 1,460 -0.9 -18.8°
Maximum altitude 23:24:55 80° 11° (N) 414 -3.8 -18.8°
Enters shadow 23:27:53 12° 98° (E) 1,335 -1.3 -18.8°
